ON4BN Weather Reports


time (UTC)temp
F
wind
direction
speed
knots
gust
knots
rain 1hr
in
rain 24hr
in
rain mn
in
humidity
%
barometer
mb
20260507105542 62 340 2.6 6.1 4.10 9.99 5.39 50
20260507104534 62 88 1.7 5.2 4.03 9.99 5.32 51
20260507103526 59 360 3.5 7.0 4.06 1.00 5.25 56
20260507102534 59 298 0.9 2.6 4.09 1.00 5.18 56
20260507101525 61 10 2.6 7.0 4.06 1.00 5.11 55
20260507100522 61 56 1.7 3.5 4.06 1.00 5.05 56
20260507095528 61 38 2.6 6.1 4.07 1.00 4.98 58
20260507094534 59 352 3.5 7.0 4.10 1.00 4.91 60
20260507093525 59 8 4.3 7.8 4.12 1.00 4.84 60
20260507092539 61 19 2.6 6.1 4.10 1.00 4.77 59
20260507091525 60 358 1.7 4.3 4.14 1.00 4.71 61
20260507090534 57 9 1.7 4.3 4.16 1.00 4.64 66
20260507085525 57 12 2.6 6.1 4.16 1.00 4.57 68
20260507084533 57 0 1.7 4.3 4.14 1.00 4.50 69
20260507083525 56 271 1.7 2.6 4.11 1.00 4.43 72
20260507082534 55 17 2.6 6.1 4.16 1.00 4.36 73
20260507081547 56 17 1.7 5.2 4.15 1.00 4.29 72
20260507080533 55 10 2.6 4.3 4.11 1.00 4.22 72
20260507075529 54 79 0.9 3.5 4.10 1.00 4.15 75
20260507074533 52 43 0.9 3.5 4.16 1.00 4.09 78
20260507073525 51 15 2.6 5.2 4.19 1.00 4.02 79
20260507072547 51 25 2.6 4.3 4.15 1.00 3.95 81
20260507071525 50 353 2.6 5.2 4.18 1.00 3.88 82
20260507070535 50 344 2.6 4.3 4.20 1.00 3.81 83
20260507065545 49 334 2.6 6.1 4.18 1.00 3.74 84
20260507064534 49 350 2.6 4.3 4.14 1.00 3.67 85
20260507063525 49 327 2.6 5.2 4.10 1.00 3.60 86
20260507062523 49 353 2.6 4.3 4.12 1.00 3.53 86
20260507061545 49 6 1.7 3.5 4.11 1.00 3.46 88
20260507060533 48 24 1.7 3.5 4.07 1.00 3.39 88
20260507055541 48 342 1.7 4.3 4.10 1.00 3.32 89
20260507054553 48 345 1.7 3.5 4.12 1.00 3.26 90
20260507053545 47 347 1.7 3.5 4.12 1.00 3.19 91
20260507052521 47 348 1.7 4.3 4.09 1.00 3.12 92
20260507051526 47 350 0.9 3.5 4.09 1.00 3.05 92
20260507050554 47 346 1.7 3.5 4.14 1.00 2.98 93
20260507045525 47 343 1.7 2.6 4.11 1.00 2.91 93
20260507044534 46 334 1.7 3.5 4.09 1.00 2.84 93
20260507043526 47 336 0.9 3.5 4.11 1.00 2.78 93
20260507042535 47 342 1.7 3.5 4.14 1.00 2.71 93
20260507041547 47 349 0.9 2.6 4.15 1.00 2.64 93
20260507040554 47 355 0.9 1.7 4.10 1.00 2.57 93
20260507035525 47 332 0.9 1.7 4.10 1.00 2.50 93
20260507034529 47 354 0.9 1.7 4.14 1.00 2.43 93
20260507033544 47 353 0.9 1.7 4.14 1.00 2.36 93
20260507032537 47 353 0.9 1.7 4.11 1.00 2.30 93
20260507031525 47 323 0.0 1.7 4.10 1.00 2.22 93
20260507030534 47 330 0.0 1.7 4.15 1.00 2.16 93
20260507025525 47 337 0.9 1.7 4.20 1.00 2.09 94
20260507024526 47 347 0.9 2.6 4.18 1.00 2.02 94
20260507023526 47 341 0.9 2.6 4.19 1.00 1.95 94
20260507022556 47 339 0.9 1.7 4.24 1.00 1.88 94
20260507021529 47 351 0.9 1.7 4.25 1.00 1.81 94
20260507020533 47 344 0.0 1.7 4.23 9.99 1.74 94
20260507015526 47 357 0.0 1.7 4.21 9.99 1.67 94
20260507014522 47 307 0.0 1.7 4.24 9.99 1.60 94
20260507013528 47 0.0 0.9 4.24 9.99 1.53 94
20260507012537 47 0.0 0.0 4.20 9.98 1.46 94
20260507011520 47 0.0 0.9 4.20 9.98 1.39 94
20260507010533 47 0.0 0.0 4.23 9.98 1.32 94
20260507005546 47 0.0 0.0 4.23 9.98 1.25 94
20260507004532 47 0.0 0.0 4.18 9.97 1.18 94
20260507003545 47 0.0 0.0 4.16 9.97 1.11 94
20260507002553 47 303 0.9 1.7 4.20 9.97 1.04 94
20260507001545 47 0.0 0.0 4.18 9.97 9.72 94
20260507000537 47 0.0 0.0 4.15 9.97 9.02 94
20260506235525 47 0.0 0.9 4.15 9.97 8.30 94
20260506234532 47 303 0.9 1.7 4.18 9.96 7.64 94
20260506233526 47 320 0.0 0.9 4.19 9.96 6.94 94
20260506232534 47 17 0.0 1.7 4.14 9.96 6.23 94
20260506231526 47 328 0.9 1.7 4.12 9.96 5.54 94
20260506230552 46 348 0.9 1.7 4.16 9.95 4.86 94
20260506225525 46 340 0.9 1.7 4.15 9.95 4.15 94
20260506224553 46 347 0.0 1.7 4.14 9.95 3.46 94
20260506223531 46 332 0.9 1.7 4.10 9.95 2.75 94
20260506222554 46 343 0.9 1.7 4.14 9.94 2.09 94
20260506221526 46 349 0.9 1.7 4.18 9.94 1.41 94
20260506220525 46 335 0.9 1.7 4.15 9.94 7.00 94
20260506215525 46 341 1.7 2.6 4.16 9.94 9.94 93
20260506214532 47 331 1.7 2.6 4.19 9.93 9.87 93
20260506213526 47 341 1.7 3.5 4.21 9.93 9.80 92
20260506212613 47 341 0.9 2.6 4.19 9.93 9.73 92
20260506211525 48 325 0.9 2.6 4.19 9.93 9.66 91
20260506210523 48 346 1.7 2.6 4.21 9.92 9.59 91
20260506205550 48 342 1.7 2.6 4.21 9.92 9.52 90
20260506204533 48 352 1.7 3.5 4.19 9.92 9.45 90
20260506203519 49 348 0.9 2.6 4.19 9.92 9.38 90
20260506202532 49 333 0.9 1.7 4.21 9.91 9.31 90
20260506201526 49 360 0.9 1.7 4.21 9.91 9.24 90
20260506200532 49 353 0.9 2.6 4.18 9.91 9.17 89
20260506195524 49 360 0.9 2.6 4.18 9.90 9.10 89
20260506194532 49 352 0.9 1.7 4.21 9.90 9.03 89
20260506193528 49 356 0.9 2.6 4.23 9.90 8.96 88
20260506192532 49 348 1.7 4.3 4.21 9.90 8.89 88
20260506191526 49 353 1.7 3.5 4.20 9.89 8.82 88
20260506190534 49 342 1.7 4.3 4.24 9.89 8.75 88
20260506185524 49 359 1.7 4.3 4.24 9.89 8.68 88
20260506184532 49 25 1.7 3.5 4.18 9.89 8.61 88
20260506183529 49 37 1.7 4.3 4.16 9.88 8.54 88
20260506182529 49 1 1.7 3.5 4.19 9.88 8.47 89
20260506181525 49 350 1.7 3.5 4.19 9.88 8.40 88
20260506180532 50 337 1.7 3.5 4.15 9.88 8.33 87
20260506175527 50 356 2.6 6.1 4.11 9.87 8.25 85
20260506174532 50 11 2.6 7.0 4.16 9.87 8.19 84
20260506173542 51 5 2.6 6.1 4.19 9.87 8.12 82
20260506172525 51 8 2.6 4.3 4.15 9.87 8.05 82
20260506171526 51 359 3.5 7.8 4.16 9.87 7.98 81
20260506170614 51 359 3.5 6.1 4.18 9.86 7.91 80
20260506165529 52 6 2.6 6.1 4.19 9.86 7.84 79
20260506164532 52 354 1.7 4.3 4.16 9.86 7.77 78
20260506163524 52 348 3.5 8.7 4.12 9.86 7.70 77
20260506162520 53 1 3.5 6.1 4.14 9.85 7.63 76
20260506161526 53 355 2.6 6.1 4.12 9.85 7.56 75
20260506160532 53 350 3.5 7.0 4.09 9.85 7.49 75
20260506155526 53 341 3.5 6.1 4.11 9.85 7.42 74
20260506154535 53 350 3.5 7.0 4.12 9.84 7.36 74
20260506153546 53 348 3.5 7.8 4.15 9.84 7.29 75
20260506152533 53 349 3.5 7.8 4.14 9.84 7.22 75
20260506151524 53 347 3.5 6.1 4.14 9.84 7.15 76
20260506150552 53 6 5.2 11.3 4.20 9.83 7.08 77
20260506145546 53 12 2.6 4.3 4.19 9.83 7.01 77
20260506144537 53 352 2.6 6.1 4.19 9.83 6.94 77
20260506143527 53 358 3.5 7.0 4.19 9.83 6.87 78
20260506142532 53 339 4.3 9.6 4.23 9.83 6.80 79
20260506141529 53 355 3.5 7.8 4.23 9.82 6.73 78
20260506140532 53 6 4.3 9.6 4.19 9.82 6.66 78
20260506135524 53 11 5.2 9.6 4.20 9.82 6.59 79
20260506134527 54 5 5.2 10.4 4.23 9.82 6.52 79
20260506133524 54 351 4.3 8.7 4.23 9.81 6.45 79
20260506132533 54 345 2.6 5.2 4.19 9.81 6.38 80
20260506131525 53 347 3.5 6.1 4.21 9.81 6.31 81
20260506130554 54 0 3.5 6.1 4.25 9.81 6.24 81
20260506125526 53 32 2.6 6.1 4.26 9.81 6.17 82
20260506124545 53 6 4.3 7.8 4.23 9.80 6.10 84
20260506123524 52 358 4.3 8.7 4.23 9.80 6.03 85
20260506122532 53 9 6.1 10.4 4.25 9.80 5.96 85
20260506121525 54 357 3.5 8.7 4.23 9.80 5.89 87
20260506120534 54 5 4.3 7.0 4.19 9.79 5.82 87
20260506115547 53 19 4.3 8.7 4.16 9.79 5.75 87
20260506114521 53 357 3.5 7.0 4.20 9.79 5.68 88
20260506113524 52 40 3.5 6.1 4.18 9.78 5.61 89
20260506112534 52 37 2.6 7.0 4.14 9.78 5.54 89
20260506111546 52 6 4.3 8.7 4.15 9.78 5.47 90
20260506110535 52 3 3.5 7.0 4.15 9.78 5.40 91